H1 CPF 2 NER 2024 6 24 9 176 01 glonass132 H2 1401201 9132 39620 2024 6 24 0 0 0 2024 6 27 23 45 0 900 1 1 0 0 0 1 H9 10 0 60485 0.00000 0 -6638122.718 -23369733.396 -7841971.926 10 0 60485 900.00000 0 -6301843.979 -22251384.138 -10804792.390 10 0 60485 1800.00000 0 -5705293.680 -20858174.338 -13558160.311 10 0 60485 2700.00000 0 -4825049.389 -19246791.453 -16048629.425 10 0 60485 3600.00000 0 -3649799.667 -17479507.846 -18227813.537 10 0 60485 4500.00000 0 -2181086.952 -15621605.971 -20053326.745 10 0 60485 5400.00000 0 -433511.312 -13738694.497 -21489610.186 10 0 60485 6300.00000 0 1565615.742 -11894026.978 -22508629.203 10 0 60485 7200.00000 0 3777155.303 -10145934.800 -23090427.142 10 0 60485 8100.00000 0 6151528.469 -8545481.457 -23223524.558 10 0 60485 9000.00000 0 8630551.519 -7134436.264 -22905155.395 10 0 60485 9900.00000 0 11149644.271 -5943652.426 -22141334.642 10 0 60485 10800.00000 0 13640321.131 -4991917.711 -20946755.096 10 0 60485 11700.00000 0 16032862.017 -4285326.249 -19344514.083 10 0 60485 12600.00000 0 18259052.197 -3817198.216 -17365674.304 10 0 60485 13500.00000 0 20254876.612 -3568550.982 -15048666.382 10 0 60485 14400.00000 0 21963055.605 -3509101.881 -12438543.951 10 0 60485 15300.00000 0 23335315.114 -3598760.030 -9586105.434 10 0 60485 16200.00000 0 24334295.281 -3789543.481 -6546899.648 10 0 60485 17100.00000 0 24935016.509 -4027839.589 -3380135.046 10 0 60485 18000.00000 0 25125840.717 -4256911.506 -147514.821 10 0 60485 18900.00000 0 24908887.095 -4419542.966 3087978.243 10 0 60485 19800.00000 0 24299885.052 -4460707.482 6263322.038 10 0 60485 20700.00000 0 23327471.174 -4330147.078 9316694.815 10 0 60485 21600.00000 0 22031960.909 -3984749.685 12188688.750 10 0 60485 22500.00000 0 20463648.032 -3390623.242 14823472.644 10 0 60485 23400.00000 0 18680704.955 -2524777.829 17169880.332 10 0 60485 24300.00000 0 16746773.546 -1376344.193 19182403.370 10 0 60485 25200.00000 0 14728348.825 52722.919 20822068.933 10 0 60485 26100.00000 0 12692065.975 1747486.196 22057186.470 10 0 60485 27000.00000 0 10702004.516 3680418.429 22863949.714 10 0 60485 27900.00000 0 8817122.016 5812329.756 23226883.647 10 0 60485 28800.00000 0 7088923.618 8093790.537 23139129.138 10 0 60485 29700.00000 0 5559463.198 10466990.514 22602561.148 10 0 60485 30600.00000 0 4259757.677 12867957.041 21627739.395 10 0 60485 31500.00000 0 3208678.570 15229040.542 20233693.408 10 0 60485 32400.00000 0 2412364.834 17481564.595 18447546.739 10 0 60485 33300.00000 0 1864179.447 19558531.423 16303987.898 10 0 60485 34200.00000 0 1545209.698 21397271.381 13844598.210 10 0 60485 35100.00000 0 1425288.722 22941927.384 11117049.267 10 0 60485 36000.00000 0 1464494.360 24145671.988 8174184.974 10 0 60485 36900.00000 0 1615061.750 24972565.734 5073005.301 10 0 60485 37800.00000 0 1823628.915 25398980.074 1873570.699 10 0 60485 38700.00000 0 2033720.868 25414526.035 -1362152.378 10 0 60485 39600.00000 0 2188367.722 25022450.088 -4571483.100 10 0 60485 40500.00000 0 2232746.693 24239480.649 -7692232.612 10 0 60485 41400.00000 0 2116736.746 23095131.303 -10663902.281 10 0 60485 42300.00000 0 1797278.077 21630489.341 -13428851.025 10 0 60485 43200.00000 0 1240436.636 19896539.509 -15933409.531 10 0 60485 44100.00000 0 423085.948 17952092.136 -18128920.030 10 0 60485 45000.00000 0 -665865.728 15861401.332 -19972681.675 10 0 60485 45900.00000 0 -2024756.109 13691571.792 -21428783.250 10 0 60485 46800.00000 0 -3638989.634 11509861.668 -22468807.035 10 0 60485 47700.00000 0 -5481408.041 9380993.427 -23072389.867 10 0 60485 48600.00000 0 -7513197.623 7364584.437 -23227630.098 10 0 60485 49500.00000 0 -9685297.612 5512804.235 -22931331.857 10 0 60485 50400.00000 0 -11940252.964 3868356.262 -22189080.980 10 0 60485 51300.00000 0 -14214435.972 2462868.488 -21015150.109 10 0 60485 52200.00000 0 -16440545.269 1315760.436 -19432233.652 10 0 60485 53100.00000 0 -18550278.533 433634.296 -17471016.603 10 0 60485 54000.00000 0 -20477067.387 -189784.187 -15169584.650 10 0 60485 54900.00000 0 -22158759.726 -573152.637 -12572686.214 10 0 60485 55800.00000 0 -23540136.308 -746487.859 -9730860.426 10 0 60485 56700.00000 0 -24575155.062 -749654.396 -6699448.007 10 0 60485 57600.00000 0 -25228827.771 -630430.733 -3537504.743 10 0 60485 58500.00000 0 -25478649.210 -442236.317 -306639.664 10 0 60485 59400.00000 0 -25315517.915 -241617.299 2930198.237 10 0 60485 60300.00000 0 -24744109.516 -85599.366 6109959.669 10 0 60485 61200.00000 0 -23782687.059 -29021.694 9170735.375 10 0 60485 62100.00000 0 -22462356.945 -121966.733 12052971.564 10 0 60485 63000.00000 0 -20825802.788 -407396.162 14700635.654 10 0 60485 63900.00000 0 -18925551.692 -919094.149 17062308.802 10 0 60485 64800.00000 0 -16821847.079 -1680005.564 19092183.713 10 0 60485 65700.00000 0 -14580218.454 -2701039.594 20750948.497 10 0 60485 66600.00000 0 -12268850.815 -3980389.152 22006540.067 10 0 60485 67500.00000 0 -9955864.101 -5503394.470 22834753.464 10 0 60485 68400.00000 0 -7706616.193 -7242956.275 23219696.613 10 0 60485 69300.00000 0 -5581141.286 -9160480.929 23154083.065 10 0 60485 70200.00000 0 -3631829.111 -11207317.843 22639358.458 10 0 60485 71100.00000 0 -1901439.973 -13326629.197 21685659.446 10 0 60485 72000.00000 0 -421536.236 -15455614.260 20311606.861 10 0 60485 72900.00000 0 788606.634 -17527996.161 18543937.753 10 0 60485 73800.00000 0 1722566.309 -19476668.331 16416983.700 10 0 60485 74700.00000 0 2386795.589 -21236391.249 13972005.463 10 0 60485 75600.00000 0 2800101.052 -22746428.207 11256396.557 10 0 60485 76500.00000 0 2992601.657 -23953011.183 8322770.596 10 0 60485 77400.00000 0 3004212.007 -24811534.887 5227949.430 10 0 60485 78300.00000 0 2882714.622 -25288388.085 2031870.954 10 0 60485 79200.00000 0 2681502.542 -25362346.183 -1203563.037 10 0 60485 80100.00000 0 2457087.328 -25025467.024 -4415677.274 10 0 60485 81000.00000 0 2266477.278 -24283452.286 -7542229.276 10 0 60485 81900.00000 0 2164536.232 -23155458.953 -10522608.646 10 0 60485 82800.00000 0 2201434.228 -21673367.987 -13299006.556 10 0 60485 83700.00000 0 2420297.619 -19880539.881 -15817533.141 10 0 60485 84600.00000 0 2855158.120 -17830107.961 -18029261.469 10 0 60485 85500.00000 0 3529287.954 -15582879.599 -19891177.987 10 0 60486 0.00000 0 4453992.298 -13204931.940 -21367021.020 10 0 60486 900.00000 0 5627911.903 -10765000.056 -22427991.746 10 0 60486 1800.00000 0 7036865.853 -8331768.661 -23053321.680 10 0 60486 2700.00000 0 8654244.850 -5971175.268 -23230687.911 10 0 60486 3600.00000 0 10441939.644 -3743839.797 -22956465.281 10 0 60486 4500.00000 0 12351768.353 -1702726.233 -22235810.594 10 0 60486 5400.00000 0 14327344.797 108865.986 -21082576.049 10 0 60486 6300.00000 0 16306311.215 1658896.958 -19519052.433 10 0 60486 7200.00000 0 18222842.893 2927700.826 -17575545.914 10 0 60486 8100.00000 0 20010320.288 3908573.034 -15289795.668 10 0 60486 9000.00000 0 21604056.523 4607805.739 -12706242.873 10 0 60486 9900.00000 0 22943965.189 5044170.160 -9875164.871 10 0 60486 10800.00000 0 23977055.407 5247868.245 -6851691.355 10 0 60486 11700.00000 0 24659648.069 5258998.863 -3694722.148 10 0 60486 12600.00000 0 24959218.728 5125604.626 -465768.564 10 0 60486 13500.00000 0 24855788.520 4901383.617 2772257.891 10 0 60486 14400.00000 0 24342803.737 4643164.729 5956284.432 10 0 60486 15300.00000 0 23427466.718 4408255.516 9024317.847 10 0 60486 16200.00000 0 22130504.225 4251776.712 11916661.695 10 0 60486 17100.00000 0 20485383.651 4224097.943 14577085.007 10 0 60486 18000.00000 0 18537010.902 4368484.429 16953918.900 10 0 60486 18900.00000 0 16339965.688 4719055.009 19001059.451 10 0 60486 19800.00000 0 13956349.306 5299138.118 20678857.541 10 0 60486 20700.00000 0 11453335.870 6120095.057 21954878.950 10 0 60486 21600.00000 0 8900529.876 7180659.779 22804521.009 10 0 60486 22500.00000 0 6367240.413 8466822.463 23211475.106 10 0 60486 23400.00000 0 3919785.141 9952261.245 23168027.519 10 0 60486 24300.00000 0 1618935.261 11599303.552 22675194.086 10 0 60486 25200.00000 0 -482393.777 13360376.620 21742687.400 10 0 60486 26100.00000 0 -2341111.651 15179886.543 20388718.083 10 0 60486 27000.00000 0 -3925502.880 16996447.666 18639634.682 10 0 60486 27900.00000 0 -5216294.654 18745369.853 16529409.411 10 0 60486 28800.00000 0 -6207200.443 20361300.497 14098979.704 10 0 60486 29700.00000 0 -6904918.781 21780911.913 11395457.986 10 0 60486 30600.00000 0 -7328588.962 22945522.767 8471224.401 10 0 60486 31500.00000 0 -7508727.777 23803544.847 5382919.430 10 0 60486 32400.00000 0 -7485692.827 24312653.538 2190355.158 10 0 60486 33300.00000 0 -7307737.478 24441591.688 -1044634.473 10 0 60486 34200.00000 0 -7028739.489 24171531.449 -4259382.815 10 0 60486 35100.00000 0 -6705698.872 23496936.953 -7391596.630 10 0 60486 36000.00000 0 -6396110.282 22425891.160 -10380556.371 10 0 60486 36900.00000 0 -6155320.460 20979872.371 -13168287.757 10 0 60486 37800.00000 0 -6033982.077 19192988.677 -15700682.348 10 0 60486 38700.00000 0 -6075711.400 17110701.007 -17928545.662 10 0 60486 39600.00000 0 -6315048.904 14788086.718 -19808552.732 10 0 60486 40500.00000 0 -6775809.461 12287714.717 -21304092.640 10 0 60486 41400.00000 0 -7469892.704 9677219.302 -22385985.630 10 0 60486 42300.00000 0 -8396605.054 7026672.550 -23033058.633 10 0 60486 43200.00000 0 -9542523.732 4405863.614 -23232567.634 10 0 60486 44100.00000 0 -10881910.433 1881597.370 -22980458.040 10 0 60486 45000.00000 0 -12377659.330 -484875.625 -22281457.127 10 0 60486 45900.00000 0 -13982741.583 -2640191.097 -21148995.781 10 0 60486 46800.00000 0 -15642087.382 -4540867.793 -19604959.888 10 0 60486 47700.00000 0 -17294827.799 -6154885.529 -17679275.118 10 0 60486 48600.00000 0 -18876803.050 -7462778.506 -15409332.113 10 0 60486 49500.00000 0 -20323231.971 -8458198.029 -12839262.478 10 0 60486 50400.00000 0 -21571430.054 -9147921.183 -10019079.224 10 0 60486 51300.00000 0 -22563460.845 -9551305.535 -7003698.335 10 0 60486 52200.00000 0 -23248607.852 -9699213.645 -3851860.907 10 0 60486 53100.00000 0 -23585561.433 -9632453.923 -624977.740 10 0 60486 54000.00000 0 -23544227.162 -9399805.258 2614079.937 10 0 60486 54900.00000 0 -23107078.341 -9055710.764 5802218.613 10 0 60486 55800.00000 0 -22269994.830 -8657740.183 8877363.837 10 0 60486 56700.00000 0 -21042552.588 -8263930.343 11779679.148 10 0 60486 57600.00000 0 -19447751.793 -7930117.944 14452737.682 10 0 60486 58500.00000 0 -17521195.544 -7707379.010 16844622.796 10 0 60486 59400.00000 0 -15309754.352 -7639684.194 18908935.962 10 0 60486 60300.00000 0 -12869773.311 -7761869.519 20605692.512 10 0 60486 61200.00000 0 -10264897.791 -8098008.138 21902088.403 10 0 60486 62100.00000 0 -7563609.049 -8660251.386 22773124.140 10 0 60486 63000.00000 0 -4836572.705 -9448187.207 23202075.065 10 0 60486 63900.00000 0 -2153910.265 -10448742.145 23180800.249 10 0 60486 64800.00000 0 417493.632 -11636630.255 22709885.447 10 0 60486 65700.00000 0 2816537.612 -12975329.526 21798618.562 10 0 60486 66600.00000 0 4990199.484 -14418544.559 20464799.074 10 0 60486 67500.00000 0 6895488.289 -15912094.245 18734385.805 10 0 60486 68400.00000 0 8500973.523 -17396145.727 16640990.113 10 0 60486 69300.00000 0 9787830.061 -18807701.703 14225224.333 10 0 60486 70200.00000 0 10750357.337 -20083237.734 11533917.744 10 0 60486 71100.00000 0 11395952.983 -21161379.998 8619214.718 10 0 60486 72000.00000 0 11744543.529 -21985512.166 5537571.836 10 0 60486 72900.00000 0 11827497.143 -22506202.885 2348672.679 10 0 60486 73800.00000 0 11686064.811 -22683352.634 -885719.460 10 0 60486 74700.00000 0 11369415.765 -22487970.106 -4102949.376 10 0 60486 75600.00000 0 10932349.915 -21903503.518 -7240675.862 10 0 60486 76500.00000 0 10432783.428 -20926670.491 -10238072.935 10 0 60486 77400.00000 0 9929113.129 -19567750.853 -13037003.472 10 0 60486 78300.00000 0 9477570.543 -17850328.908 -15583142.910 10 0 60486 79200.00000 0 9129676.933 -15810494.476 -17827031.511 10 0 60486 80100.00000 0 8929906.630 -13495534.474 -19725034.965 10 0 60486 81000.00000 0 8913657.409 -10962167.920 -21240194.798 10 0 60486 81900.00000 0 9105614.037 -8274396.263 -22342952.082 10 0 60486 82800.00000 0 9518574.841 -5501057.015 -23011730.152 10 0 60486 83700.00000 0 10152792.002 -2713181.129 -23233364.656 10 0 60486 84600.00000 0 10995854.871 18737.054 -23003371.950 10 0 60486 85500.00000 0 12023122.935 2627444.477 -22326049.794 10 0 60487 0.00000 0 13198691.852 5051496.409 -21214407.516 10 0 60487 900.00000 0 14476854.205 7237580.409 -19689925.182 10 0 60487 1800.00000 0 15803993.226 9142497.087 -17782146.947 10 0 60487 2700.00000 0 17120832.792 10734719.142 -15528113.438 10 0 60487 3600.00000 0 18364947.814 11995460.053 -12971644.813 10 0 60487 4500.00000 0 19473429.656 12919208.912 -10162487.473 10 0 60487 5400.00000 0 20385593.474 13513708.985 -7155341.020 10 0 60487 6300.00000 0 21045612.138 13799381.428 -4008784.825 10 0 60487 7200.00000 0 21404964.233 13808219.423 -784125.917 10 0 60487 8100.00000 0 21424591.320 13582200.720 2455808.154 10 0 60487 9000.00000 0 21076672.045 13171287.327 5647906.582 10 0 60487 9900.00000 0 20345937.102 12631098.815 8730017.023 10 0 60487 10800.00000 0 19230468.858 12020359.595 11642166.156 10 0 60487 11700.00000 0 17741951.636 11398229.992 14327734.132 10 0 60487 12600.00000 0 15905362.206 10821635.521 16734559.165 10 0 60487 13500.00000 0 13758113.934 10342708.396 18815950.425 10 0 60487 14400.00000 0 11348691.059 10006449.922 20531589.668 10 0 60487 15300.00000 0 8734830.976 9848712.485 21848304.651 10 0 60487 16200.00000 0 5981330.971 9894585.793 22740700.320 10 0 60487 17100.00000 0 3157571.143 10157254.478 23191636.822 10 0 60487 18000.00000 0 334856.511 10637374.122 23192546.445 10 0 60487 18900.00000 0 -2416311.717 11322990.776 22743584.787 10 0 60487 19800.00000 0 -5028923.462 12190006.347 21853614.460 10 0 60487 20700.00000 0 -7441995.490 13203169.576 20540022.660 10 0 60487 21600.00000 0 -9602852.079 14317550.514 18828376.809 10 0 60487 22500.00000 0 -11469057.916 15480436.637 16751925.244 10 0 60487 23400.00000 0 -13009924.945 16633571.260 14350952.623 10 0 60487 24300.00000 0 -14207532.500 17715640.926 11672002.195 10 0 60487 25200.00000 0 -15057220.083 18664908.123 8766979.460 10 0 60487 26100.00000 0 -15567533.781 19421879.581 5692153.892 10 0 60487 27000.00000 0 -15759629.837 19931898.882 2507077.335 10 0 60487 27900.00000 0 -15666161.224 20147555.033 -726560.763 10 0 60487 28800.00000 0 -15329694.472 20030806.120 -3946119.745 10 0 60487 29700.00000 0 -14800723.397 19554728.802 -7089213.406 10 0 60487 30600.00000 0 -14135363.226 18704819.752 -10094912.100 10 0 60487 31500.00000 0 -13392821.848 17479793.579 -12904918.390 10 0 60487 32400.00000 0 -12632754.345 15891842.592 -15464693.836 10 0 60487 33300.00000 0 -11912611.847 13966345.968 -17724515.356 10 0 60487 34200.00000 0 -11285096.137 11741038.723 -19640440.862 10 0 60487 35100.00000 0 -10795827.138 9264673.275 -21175165.549 10 0 60487 36000.00000 0 -10481321.682 6595227.457 -22298752.199 10 0 60487 36900.00000 0 -10367369.139 3797731.783 -22989221.116 10 0 60487 37800.00000 0 -10467873.077 941804.725 -23232987.850 10 0 60487 38700.00000 0 -10784208.743 -1901002.925 -23025139.617 10 0 60487 39600.00000 0 -11305124.721 -4659945.200 -22369544.228 10 0 60487 40500.00000 0 -12007194.275 -7267786.501 -21278788.420 10 0 60487 41400.00000 0 -12855798.748 -9663363.318 -19773945.672 10 0 60487 42300.00000 0 -13806602.808 -11793895.453 -17884176.927 10 0 60487 43200.00000 0 -14807460.242 -13616950.172 -15646170.930 10 0 60487 44100.00000 0 -15800670.428 -15101977.005 -13103434.239 10 0 60487 45000.00000 0 -16725490.234 -16231348.680 -10305444.260 10 0 60487 45900.00000 0 -17520794.745 -17000864.539 -7306681.690 10 0 60487 46800.00000 0 -18127773.426 -17419695.521 -4165561.539 10 0 60487 47700.00000 0 -18492546.453 -17509773.657 -943284.387 10 0 60487 48600.00000 0 -18568589.062 -17304652.873 2297368.605 10 0 60487 49500.00000 0 -18318859.950 -16847890.593 5493272.042 10 0 60487 50400.00000 0 -17717542.386 -16191020.250 8582198.377 10 0 60487 51300.00000 0 -16751323.475 -15391202.245 11504040.066 10 0 60487 52200.00000 0 -15420156.901 -14508654.529 14201986.812 10 0 60487 53100.00000 0 -13737476.764 -13603973.011 16623634.062 10 0 60487 54000.00000 0 -11729853.591 -12735456.258 18722000.832 10 0 60487 54900.00000 0 -9436107.280 -11956548.173 20456437.166 10 0 60487 55800.00000 0 -6905914.636 -11313506.691 21793404.142 10 0 60487 56700.00000 0 -4197970.132 -10843396.348 22707112.311 10 0 60487 57600.00000 0 -1377776.890 -10572488.370 23180007.409 10 0 60487 58500.00000 0 1484840.146 -10515134.330 23203095.358 10 0 60487 59400.00000 0 4318395.809 -10673159.334 22776101.663 10 0 60487 60300.00000 0 7052471.389 -11035798.761 21907463.395 10 0 60487 61200.00000 0 9620394.378 -11580179.980 20614154.898 10 0 60487 62100.00000 0 11961761.613 -12272327.838 18921351.333 10 0 60487 63000.00000 0 14024702.896 -13068651.094 16861936.848 10 0 60487 63900.00000 0 15767792.910 -13917847.192 14475866.928 10 0 60487 64800.00000 0 17161533.874 -14763145.510 11809396.958 10 0 60487 65700.00000 0 18189348.969 -15544795.277 8914191.370 10 0 60487 66600.00000 0 18848046.673 -16202694.189 5846330.000 10 0 60487 67500.00000 0 19147737.890 -16679047.840 2665230.126 10 0 60487 68400.00000 0 19111210.278 -16920948.709 -567495.692 10 0 60487 69300.00000 0 18772786.571 -16882766.565 -3789224.505 10 0 60487 70200.00000 0 18176715.026 -16528249.807 -6937528.278 10 0 60487 71100.00000 0 17375159.567 -15832249.110 -9951376.793 10 0 60487 72000.00000 0 16425873.801 -14781990.191 -12772315.234 10 0 60487 72900.00000 0 15389656.323 -13377841.156 -15345594.002 10 0 60487 73800.00000 0 14327693.850 -11633540.718 -17621229.149 10 0 60487 74700.00000 0 13298903.523 -9575875.904 -19554973.014 10 0 60487 75600.00000 0 12357385.842 -7243820.706 -21109176.362 10 0 60487 76500.00000 0 11550095.188 -4687169.434 -22253525.260 10 0 60487 77400.00000 0 10914826.025 -1964719.696 -22965638.193 10 0 60487 78300.00000 0 10478599.785 857921.348 -23231511.452 10 0 60487 79200.00000 0 10256520.883 3710817.898 -23045803.579 10 0 60487 80100.00000 0 10251150.830 6522371.746 -22411952.507 10 0 60487 81000.00000 0 10452427.735 9222063.948 -21342122.199 10 0 60487 81900.00000 0 10838135.640 11743158.433 -19856978.677 10 0 60487 82800.00000 0 11374904.848 14025255.107 -17985298.705 10 0 60487 83700.00000 0 12019701.846 16016585.896 -15763417.718 10 0 60487 84600.00000 0 12721746.359 17675957.513 -13234526.856 10 0 60487 85500.00000 0 13424774.594 18974259.274 -10447832.322 10 0 60488 0.00000 0 14069552.521 19895472.395 -7457593.589 10 0 60488 900.00000 0 14596532.302 20437138.779 -4322057.838 10 0 60488 1800.00000 0 14948537.389 20610268.641 -1102316.260 10 0 60488 2700.00000 0 15073362.245 20438693.241 2138899.734 10 0 60488 3600.00000 0 14926174.198 19957889.759 5338453.583 10 0 60488 4500.00000 0 14471614.619 19213329.956 8434045.898 10 0 60488 5400.00000 0 13685509.211 18258423.955 11365438.115 10 0 60488 6300.00000 0 12556114.198 17152147.755 14075632.460 10 0 60488 7200.00000 0 11084845.256 15956456.343 16511984.314 10 0 60488 8100.00000 0 9286458.248 14733592.961 18627224.935 10 0 60488 9000.00000 0 7188674.240 13543408.903 20380374.730 10 0 60488 9900.00000 0 4831264.815 12440807.189 21737529.863 10 0 60488 10800.00000 0 2264636.258 11473417.430 22672507.888 10 0 60488 11700.00000 0 -452027.999 10679598.918 23167341.159 10 0 60488 12600.00000 0 -3252989.224 10086854.536 23212609.836 10 0 60488 13500.00000 0 -6068447.331 9710720.520 22807609.477 10 0 60488 14400.00000 0 -8827203.909 9554176.911 21960351.235 10 0 60488 15300.00000 0 -11459384.734 9607601.761 20687395.704 10 0 60488 16200.00000 0 -13899110.051 9849269.493 19013524.329 10 0 60488 17100.00000 0 -16087003.369 10246371.369 16971255.100 10 0 60488 18000.00000 0 -17972436.239 10756514.441 14600211.902 10 0 60488 18900.00000 0 -19515417.438 11329635.681 11946359.449 10 0 60488 19800.00000 0 -20688049.623 11910250.865 9061118.042 10 0 60488 20700.00000 0 -21475494.179 12439943.908 6000374.651 10 0 60488 21600.00000 0 -21876405.241 12859992.411 2823408.701 10 0 60488 22500.00000 0 -21902815.629 13114019.340 -408247.408 10 0 60488 23400.00000 0 -21579480.054 13150559.606 -3631991.643 10 0 60488 24300.00000 0 -20942703.343 12925433.621 -6785357.229 10 0 60488 25200.00000 0 -20038702.791 12403827.763 -9807216.316 10 0 60488 26100.00000 0 -18921573.079 11561993.663 -12638959.441 10 0 60488 27000.00000 0 -17650938.739 10388493.933 -15225628.331 10 0 60488 27900.00000 0 -16289392.212 8884940.623 -17516980.337 10 0 60488 28800.00000 0 -14899824.499 7066193.712 -19468464.025 10 0 60488 29700.00000 0 -13542760.008 4960009.247 -21042087.123 10 0 60488 30600.00000 0 -12273807.058 2606149.619 -22207159.957 10 0 60488 31500.00000 0 -11141330.907 54990.806 -22940899.746 10 0 60488 32400.00000 0 -10184446.964 -2634317.558 -23228883.667 10 0 60488 33300.00000 0 -9431418.663 -5396064.680 -23065341.333 10 0 60488 34200.00000 0 -8898527.753 -8160473.258 -22453280.180 10 0 60488 35100.00000 0 -8589465.036 -10856373.708 -21404440.406 10 0 60488 36000.00000 0 -8495267.887 -13413947.547 -19939079.248 10 0 60488 36900.00000 0 -8594807.827 -15767425.932 -18085587.662 10 0 60488 37800.00000 0 -8855808.149 -17857630.858 -15879945.861 10 0 60488 38700.00000 0 -9236348.963 -19634252.545 -13365027.441 10 0 60488 39600.00000 0 -9686796.055 -21057767.211 -10589765.126 10 0 60488 40500.00000 0 -10152071.572 -22100914.382 -7608194.229 10 0 60488 41400.00000 0 -10574169.619 -22749671.304 -4478392.754 10 0 60488 42300.00000 0 -10894808.996 -23003683.381 -1261339.542 10 0 60488 43200.00000 0 -11058109.226 -22876132.769 1980286.187 10 0 60488 44100.00000 0 -11013174.848 -22393051.366 5183339.136 10 0 60488 45000.00000 0 -10716476.861 -21592108.265 8285450.481 10 0 60488 45900.00000 0 -10133929.062 -20520924.293 11226253.020 10 0 60488 46800.00000 0 -9242570.234 -19234986.372 13948563.825 10 0 60488 47700.00000 0 -8031780.309 -17795251.327 16399500.420 10 0 60488 48600.00000 0 -6503978.763 -16265541.630 18531508.353 10 0 60488 49500.00000 0 -4674775.674 -14709843.836 20303280.243 10 0 60488 50400.00000 0 -2572569.228 -13189623.996 21680548.911 10 0 60488 51300.00000 0 -237606.763 -11761272.866 22636740.209 10 0 60488 52200.00000 0 2279451.207 -10473787.547 23153474.095 10 0 60488 53100.00000 0 4919403.939 -9366785.658 23220905.652 10 0 60488 54000.00000 0 7616742.508 -8468933.665 22837900.878 10 0 60488 54900.00000 0 10302148.604 -7796853.300 22012045.115 10 0 60488 55800.00000 0 12905156.937 -7354549.939 20759485.029 10 0 60488 56700.00000 0 15356871.781 -7133384.931 19104607.900 10 0 60488 57600.00000 0 17592626.163 -7112591.417 17079564.811 10 0 60488 58500.00000 0 19554474.673 -7260310.674 14723646.976 10 0 60488 59400.00000 0 21193417.821 -7535104.589 12082527.009 10 0 60488 60300.00000 0 22471266.847 -7887880.285 9207379.258 10 0 60488 61200.00000 0 23362072.646 -8264145.824 6153895.611 10 0 60488 62100.00000 0 23853060.285 -8606502.286 2981215.040 10 0 60488 63000.00000 0 23945030.931 -8857267.581 -249213.141 10 0 60488 63900.00000 0 23652214.867 -8961121.822 -3474810.961 10 0 60488 64800.00000 0 23001581.949 -8867663.014 -6633076.179 10 0 60488 65700.00000 0 22031638.292 -8533765.376 -9662786.572 10 0 60488 66600.00000 0 20790759.246 -7925640.632 -12505181.187 10 0 60488 67500.00000 0 19335128.044 -7020514.795 -15105096.037 10 0 60488 68400.00000 0 17726365.854 -5807848.751 -17412032.485 10 0 60488 69300.00000 0 16028951.907 -4290049.852 -19381137.768 10 0 60488 70200.00000 0 14307541.170 -2482642.730 -20974078.733 10 0 60488 71100.00000 0 12624291.341 -413889.959 -22159791.814 10 0 60488 72000.00000 0 11036310.769 1876123.879 -22915094.498 10 0 60488 72900.00000 0 9593333.911 4336908.887 -23225146.041 10 0 60488 73800.00000 0 8335721.688 6909430.406 -23083747.958 10 0 60488 74700.00000 0 7292870.677 9528337.859 -22493477.637 10 0 60488 75600.00000 0 6482098.132 12124470.553 -21465651.580 10 0 60488 76500.00000 0 5908050.026 14627537.195 -20020117.890 10 0 60488 77400.00000 0 5562657.392 16968857.952 -18184880.955 10 0 60488 78300.00000 0 5425643.096 19084054.785 -15995564.586 10 0 60488 79200.00000 0 5465557.849 20915577.422 -13494723.217 10 0 60488 80100.00000 0 5641301.568 22414958.639 -10731014.030 10 0 60488 81000.00000 0 5904065.343 23544703.682 -7758245.985 10 0 60488 81900.00000 0 6199611.000 24279733.833 -4634324.507 10 0 60488 82800.00000 0 6470790.504 24608322.922 -1420113.169 10 0 60488 83700.00000 0 6660196.983 24532487.232 1821764.402 10 0 60488 84600.00000 0 6712833.298 24067812.597 5028157.688 10 0 60488 85500.00000 0 6578683.361 23242726.675 8136631.946 99